SES-5 (EGNOS/PRN 136)

Last updated on Jan. 18, 2020, 4:39 a.m. UTC

1 38652U 12036A   20017.24007722  .00000029  00000-0  00000-0 0  9991
2 38652   0.0517  97.7023 0002189 193.9196 275.8934  1.00270805 21010
UTC
Height (km)
Latitude
Longitude
Inclination
Orbital Period
UTC large
Height (km)
Speed (km/s)
/
Latitude / Longitude
Inclination (degrees)
Orbital Period (minutes)
Azimuth
Elevation
Range (km)
Doppler Factor
iOS Compass Heading
iOS Angle

Next 30 passes for location: Hong Kong

Rise time Rise Azimuth (degrees) Set time Set Azimuth (degrees) Duration Max altitude (degrees)

No matching passes for this satellites